Location: Les Moreaux
(47.2278°N, 1.4966°E)
Time: 19:11:13
(UTC+00:00)

CZ-4C R/B - Pass Details

Date: 15 May 2026
Orbit: 409 x 495 km, 98.0° (Epoch: 10 June)

Event Time Altitude Azimuth Distance (km) Brightness Sun altitude
Rises 01:46:34 0° 355° (N) 2,450 7.6 -19.0°
Reaches altitude 10° 01:49:20 10° 329° (NNW) 1,593 6.0 -18.7°
Maximum altitude 01:51:09 14° 297° (WNW) 1,378 5.3 -18.6°
Enters shadow 01:51:40 14° 287° (WNW) 1,400 5.2 -18.5°
